Nashville, TN

4:51 AM CDT on April 21, 2018 (GMT -0500)
Nashville International

Weather History for KBNA - January, 2014

Change the Weather History Date:

Tuesday, January 7, 2014

  Actual Average Record
Temperature  
Mean Temperature 12 °F 37 °F  
Max Temperature 21 °F 46 °F 71 °F (1888)
Min Temperature 2 °F 29 °F -6 °F (1912)
Degree Days  
Heating Degree Days 53    
Month to date heating degree days 268  
Since 1 July heating degree days 1736  
Cooling Degree Days 0    
Month to date cooling degree days 0  
Year to date cooling degree days 0  
Moisture  
Dew Point 0 °F    
Average Humidity 62    
Maximum Humidity 79    
Minimum Humidity 45    
Precipitation  
Precipitation 0.00 in 0.11 in 3.41 in (1946)
Month to date precipitation 0.61 0.81  
Year to date precipitation 0.61 0.81  
Snow  
Snow 0.00 in - 8.10 in (1988)
Month to date snowfall 0.2  
Since 1 July snowfall 1.1  
Snow Depth T in    
Sea Level Pressure  
Sea Level Pressure 30.54 in    
Wind  
Wind Speed 5 mph (South)    
Max Wind Speed 16 mph    
Max Gust Speed 21 mph    
Visibility 10 miles    
Events      
T = Trace of Precipitation, MM = Missing Value Source: NWS Daily Summary

Daily Weather History Graph

Daily Weather History Graph

Search for Another Location

Airport or City:

Astronomy

Jan. 07, 2014 Rise Set
Actual Time 6:58 AM CST 4:48 PM CST
Civil Twilight 6:29 AM CST 5:16 PM CST
Nautical Twilight 5:57 AM CST 5:48 PM CST
Astronomical Twilight 5:26 AM CST 6:19 PM CST
Moon 11:00 AM CST (1/7) No Moon Set
Length of Visible Light 10h 46m
Length of Day
9h 50m
Waxing Crescent, 46% of the Moon is Illuminated
Jan 7
Waxing Crescent
Jan 7
First Quarter
Jan 15
Full
Jan 23
Last Quarter
Jan 30
New

Hourly Weather History & Observations

Time (CST) Temp. Windchill Dew Point Humidity Pressure Visibility Wind Dir Wind Speed Gust Speed Precip Events Conditions
12:53 AM 3.9 °F - -5.1 °F 66% 30.58 in 10.0 mi Calm Calm - N/A   Partly Cloudy
1:53 AM 3.9 °F - -4.0 °F 70% 30.58 in 10.0 mi Calm Calm - N/A   Clear
2:53 AM 3.0 °F - -5.1 °F 69% 30.57 in 10.0 mi Calm Calm - N/A   Clear
3:53 AM 3.0 °F -6.4 °F -5.1 °F 69% 30.58 in 10.0 mi North 4.6 mph - N/A   Clear
4:53 AM 3.0 °F - -4.0 °F 73% 30.59 in 10.0 mi Calm Calm - N/A   Clear
5:53 AM 1.9 °F - -4.0 °F 76% 30.60 in 10.0 mi Calm Calm - N/A   Clear
6:53 AM 1.9 °F - -4.0 °F 76% 30.62 in 10.0 mi Calm Calm - N/A   Partly Cloudy
7:53 AM 3.9 °F -6.9 °F -2.0 °F 76% 30.63 in 10.0 mi SSE 5.8 mph - N/A   Partly Cloudy
8:53 AM 6.1 °F - -4.0 °F 63% 30.63 in 10.0 mi Calm Calm - N/A   Partly Cloudy
9:53 AM 10.0 °F 3.6 °F -2.0 °F 58% 30.63 in 10.0 mi SSE 3.5 mph - N/A   Partly Cloudy
10:53 AM 10.9 °F -0.8 °F -2.0 °F 56% 30.60 in 10.0 mi SSW 8.1 mph - N/A   Partly Cloudy
11:53 AM 12.9 °F 6.9 °F -2.9 °F 49% 30.56 in 10.0 mi SSW 3.5 mph - N/A   Partly Cloudy
12:53 PM 17.1 °F 10.0 °F 1.0 °F 50% 30.52 in 10.0 mi South 4.6 mph - N/A   Partly Cloudy
1:53 PM 18.0 °F 9.8 °F 1.0 °F 48% 30.53 in 10.0 mi SW 5.8 mph - N/A   Partly Cloudy
2:53 PM 19.9 °F 10.1 °F 3.0 °F 48% 30.51 in 10.0 mi South 8.1 mph - N/A   Partly Cloudy
3:53 PM 21.0 °F 9.9 °F 3.9 °F 48% 30.49 in 10.0 mi South 10.4 mph - N/A   Partly Cloudy
4:53 PM 19.9 °F 11.1 °F 3.9 °F 50% 30.48 in 10.0 mi South 6.9 mph - N/A   Partly Cloudy
5:53 PM 18.0 °F 12.7 °F 5.0 °F 57% 30.49 in 10.0 mi South 3.5 mph - N/A   Clear
6:53 PM 17.1 °F 6.6 °F 6.1 °F 62% 30.50 in 10.0 mi South 8.1 mph - N/A   Clear
7:53 PM 18.0 °F 6.1 °F 6.1 °F 60% 30.48 in 10.0 mi South 10.4 mph - N/A   Clear
8:53 PM 19.0 °F 7.5 °F 5.0 °F 54% 30.48 in 10.0 mi South 10.4 mph - N/A   Clear
9:53 PM 19.0 °F 7.5 °F 3.9 °F 52% 30.47 in 10.0 mi South 10.4 mph - N/A   Clear
10:53 PM 19.9 °F 7.3 °F 5.0 °F 52% 30.45 in 10.0 mi South 12.7 mph - N/A   Clear
11:53 PM 19.9 °F 10.1 °F 3.9 °F 50% 30.46 in 10.0 mi South 8.1 mph - N/A   Clear